This is the latest recevied weather packets stored in our database for station/object KF7U. If no packets are shown the sender has not sent any weather packets the latest 10 day(s).
| Time | Temp. | Humidity | Pressure | Rain* | Wind** | Luminosity | Snow |
|---|---|---|---|---|---|---|---|
| 1777950454 | 22.78° C | 32% | 1009.8 hPa | 0 mm | - | 0 W/m² | - |
| 1777950154 | 22.78° C | 32% | 1009.8 hPa | 0 mm | - | 0 W/m² | - |
| 1777949854 | 22.78° C | 32% | 1009.8 hPa | 0 mm | - | 0 W/m² | - |
| 1777949555 | 22.78° C | 32% | 1009.8 hPa | 0 mm | - | 0 W/m² | - |
| 1777949254 | 22.78° C | 32% | 1009.8 hPa | 0 mm | - | 0 W/m² | - |
| 1777948955 | 23.33° C | 32% | 1010.2 hPa | 0 mm | - | 0 W/m² | - |
| 1777948655 | 23.33° C | 33% | 1010.2 hPa | 0 mm | - | 0 W/m² | - |
| 1777948355 | 23.33° C | 36% | 1010.2 hPa | 0 mm | - | 0 W/m² | - |
| 1777948055 | 23.33° C | 39% | 1009.8 hPa | 0 mm | - | 0 W/m² | - |
| 1777947754 | 23.33° C | 39% | 1009.8 hPa | 0 mm | - | 0 W/m² | - |
| 1777947455 | 23.33° C | 39% | 1009.5 hPa | 0 mm | - | 1 W/m² | - |
| 1777947154 | 23.33° C | 39% | 1009.5 hPa | 0 mm | - | 3 W/m² | - |
| 1777946854 | 23.33° C | 39% | 1009.1 hPa | 0 mm | - | 3 W/m² | - |
| 1777946555 | 23.33° C | 39% | 1009.1 hPa | 0 mm | - | 5 W/m² | - |
| 1777946255 | 23.33° C | 39% | 1009.1 hPa | 0 mm | - | 9 W/m² | - |
| 1777945954 | 23.33° C | 39% | 1009.1 hPa | 0 mm | - | 16 W/m² | - |
| 1777945655 | 23.33° C | 38% | 1009.1 hPa | 0 mm | - | 25 W/m² | - |
| 1777945354 | 23.89° C | 38% | 1009.1 hPa | 0 mm | - | 37 W/m² | - |
| 1777945054 | 23.89° C | 38% | 1009.5 hPa | 0 mm | - | 37 W/m² | - |
| 1777944755 | 23.89° C | 38% | 1009.1 hPa | 0 mm | - | 38 W/m² | - |
| 1777944456 | 23.89° C | 38% | 1009.1 hPa | 0 mm | - | 39 W/m² | - |
| 1777944154 | 23.89° C | 38% | 1009.1 hPa | 0 mm | - | 54 W/m² | - |
| 1777943854 | 23.89° C | 38% | 1009.1 hPa | 0 mm | - | 66 W/m² | - |
| 1777943554 | 23.89° C | 37% | 1009.1 hPa | 0 mm | - | 74 W/m² | - |
| 1777943254 | 24.44° C | 37% | 1009.1 hPa | 0 mm | - | 84 W/m² | - |
* Rain latest hour (hover to see other rain measurements)
** Current wind speed in m/s (hover to see current wind gust speed)